Date,TemperatureHighF,TemperatureAvgF,TemperatureLowF,DewpointHighF,DewpointAvgF,DewpointLowF,HumidityHigh,HumidityAvg,HumidityLow,PressureMaxIn,PressureMinIn,WindSpeedMaxMPH,WindSpeedAvgMPH,GustSpeedMaxMPH,PrecipitationSumIn
2013-6-18,78,74,72,73,72,70,95,92,84,29.93,29.88,0,0,0,0.80
2013-6-19,90,76,66,72,68,63,97,79,46,30.00,29.92,0,0,0,0.02
2013-6-20,86,77,67,76,72,66,97,84,62,30.08,30.02,0,0,0,0.00
2013-6-21,92,83,69,75,72,68,97,71,51,30.15,30.04,0,0,0,0.00
2013-6-22,86,77,68,73,71,67,97,82,61,30.11,30.00,0,0,0,0.00
2013-6-23,91,83,68,75,71,67,96,70,49,30.09,29.97,0,0,0,0.00
2013-6-24,94,84,71,77,73,-100,95,72,52,30.11,29.98,0,0,0,0.00
2013-6-25,92,81,72,76,71,-100,96,80,58,30.04,29.90,0,0,0,0.00
2013-6-26,91,80,73,76,70,-100,93,77,59,29.95,29.80,0,0,0,0.00
2013-6-27,85,80,78,78,75,73,91,83,78,29.84,29.77,0,0,0,0.00
2013-6-28,88,80,71,75,68,-100,95,75,60,29.83,29.65,0,0,0,0.10
2013-6-29,87,82,65,65,62,59,96,52,41,29.69,29.61,0,0,0,0.00
2013-6-30,77,73,65,67,60,-100,95,74,68,29.76,29.72,0,0,0,0.00
2013-7-1,72,69,66,68,66,64,95,91,80,29.87,29.80,0,0,0,0.45
2013-7-2,81,72,66,69,66,64,96,84,61,29.99,29.90,0,0,0,0.22
2013-7-3,81,67,60,68,63,59,98,89,58,30.06,29.99,0,0,0,0.04
2013-7-4,81,74,66,72,67,-100,98,84,72,30.02,29.95,0,0,0,0.04
2013-7-5,82,71,68,74,68,-100,97,94,73,30.03,29.97,0,0,0,0.18
2013-7-6,84,73,69,74,70,68,97,92,69,30.04,29.95,0,0,0,0.15
2013-7-7,90,78,68,76,72,66,96,82,57,30.05,30.01,0,0,0,0.00
2013-7-8,92,82,69,77,74,68,98,80,57,30.12,30.02,0,0,0,0.00
2013-7-9,94,85,71,78,75,70,98,74,53,30.11,29.98,0,0,0,0.00
2013-7-10,93,85,75,78,76,73,93,76,60,30.01,29.87,0,0,0,0.00
2013-7-11,90,80,73,77,73,70,97,83,53,29.93,29.90,0,0,0,0.00
2013-7-12,83,76,62,68,62,-100,95,66,50,30.01,29.95,0,0,0,0.00
2013-7-13,84,75,59,68,64,58,97,71,51,30.02,29.97,0,0,0,0.01
2013-7-14,84,73,69,73,71,67,96,92,66,30.09,30.03,0,0,0,0.29
2013-7-15,88,80,72,75,73,71,98,82,64,30.19,30.13,0,0,0,0.00
2013-7-16,90,83,78,77,72,-100,92,74,58,30.28,30.19,0,0,0,0.00
2013-7-17,93,84,71,78,74,70,98,75,55,30.29,30.15,0,0,0,0.00
2013-7-18,78,75,73,75,73,71,97,93,90,30.14,30.04,0,0,0,0.07
2013-7-19,92,80,68,78,72,-100,98,81,60,30.06,29.92,0,0,0,0.00
2013-7-20,92,84,70,77,75,69,98,76,57,29.96,29.82,0,0,0,0.02
2013-7-21,77,72,71,72,71,70,97,96,88,29.94,29.90,0,0,0,0.08
2013-7-22,83,75,68,78,73,68,98,92,83,29.93,29.84,0,0,0,1.22
2013-7-23,86,78,70,76,73,69,98,86,69,29.95,29.81,0,0,0,0.34
2013-7-24,87,77,71,75,72,70,98,85,62,29.89,29.83,0,0,0,0.01
2013-7-26,82,74,73,70,68,65,88,83,56,30.05,29.94,0,0,0,0.06
2013-7-27,86,79,69,71,68,66,97,71,53,29.96,29.89,0,0,0,0.00
2013-7-28,78,70,63,66,61,56,91,75,52,30.06,29.98,0,0,0,0.00
2013-7-29,81,73,62,69,64,61,96,76,54,30.17,30.11,0,0,0,0.00
2013-7-30,79,74,66,75,70,63,96,89,72,30.14,30.02,0,0,0,0.52
2013-7-31,88,78,73,79,75,72,98,91,73,30.02,29.91,0,0,0,1.19
2013-8-1,80,74,69,72,70,69,98,88,71,30.01,29.97,0,0,0,0.02
2013-8-2,90,80,64,74,70,63,98,72,50,30.03,29.95,0,0,0,0.05
2013-8-3,78,76,70,77,74,69,98,95,91,30.07,29.93,0,0,0,0.53
2013-8-4,86,77,70,74,71,69,98,82,63,30.09,30.04,0,0,0,0.04
2013-8-5,76,72,68,72,69,66,96,91,81,30.06,29.93,0,0,0,0.10
2013-8-6,79,76,72,77,74,71,98,94,86,29.96,29.89,0,0,0,1.12
2013-8-7,90,81,73,80,76,72,97,86,70,29.92,29.85,0,0,0,0.00
2013-8-8,93,83,74,82,78,73,98,87,68,29.92,29.85,0,0,0,0.00
2013-8-9,92,84,74,80,78,73,97,82,66,29.96,29.92,0,0,0,0.00
2013-8-10,84,79,73,77,74,72,98,87,76,30.11,30.01,0,0,0,0.33
2013-8-11,82,76,72,77,75,72,98,94,85,30.08,30.05,0,0,0,0.14
2013-8-12,80,73,72,77,70,-100,98,97,90,30.05,29.90,0,0,0,1.32
2013-8-13,86,78,73,76,72,-100,99,85,66,29.99,29.91,0,0,0,0.02
2013-8-14,72,60,62,64,44,-100,90,82,67,30.10,30.06,0,0,0,0.00
2013-8-15,75,52,55,67,29,-100,97,90,69,30.09,30.01,0,0,0,0.00
2013-8-16,77,58,63,70,37,-100,96,89,76,30.08,30.02,0,0,0,0.00
2013-8-17,78,57,67,70,30,-100,97,84,74,30.11,30.03,0,0,0,0.00
2013-8-18,82,34,66,71,-23,-100,97,50,65,30.12,30.06,0,-380,0,0.00
2013-8-19,86,30,80,73,-38,-100,79,25,59,30.12,30.01,0,-635,0,0.00
2013-8-20,87,39,81,78,-19,-100,88,34,63,30.11,30.02,0,-540,0,0.65
2013-8-21,89,7,88,77,-85,-100,69,6,62,30.15,30.06,0,-916,0,0.00
2013-8-22,86,29,83,79,-39,-100,86,27,72,30.14,30.00,0,-659,0,0.00
2013-8-23,89,33,84,80,-33,-100,84,26,56,30.07,29.98,0,-620,0,0.00
2013-8-24,84,20,83,75,-58,-100,76,18,72,30.15,30.10,0,-758,0,0.00
2013-8-25,89,41,72,77,-13,-100,98,39,65,30.26,30.19,0,-500,0,0.00
2013-8-26,89,56,69,75,13,-100,98,45,57,30.26,30.12,0,-333,0,0.00
2013-8-27,90,50,66,77,3,-100,98,41,56,30.15,30.04,0,-407,0,0.00
2013-8-28,91,66,67,75,37,-100,98,56,55,30.09,30.00,0,-205,0,0.00
2013-8-29,89,45,81,81,-6,-100,88,41,69,30.06,29.95,0,-473,0,0.00
2013-8-30,95,85,69,78,72,-100,98,70,50,30.00,29.89,0,0,0,0.02
2013-8-31,98,86,70,81,76,70,98,75,51,29.92,29.81,0,0,0,0.01
2013-9-1,76,73,72,73,72,71,98,97,88,29.92,29.83,0,0,0,1.55
2013-9-2,87,78,70,78,71,-100,98,85,71,29.87,29.84,0,0,0,0.00
2013-9-3,72,66,64,69,65,64,98,97,89,29.99,29.96,0,0,0,0.00
2013-9-4,84,71,61,68,63,-100,98,82,56,30.13,30.07,0,0,0,0.07
2013-9-5,78,66,59,71,64,58,98,93,77,30.17,30.11,0,0,0,0.06
2013-9-6,85,79,61,74,70,60,97,75,53,30.13,30.05,0,0,0,0.03
2013-9-7,82,74,64,77,72,63,98,92,77,30.09,29.96,0,0,0,0.05
2013-9-8,94,78,65,78,72,65,98,84,54,29.99,29.91,0,0,0,0.05
2013-9-9,92,81,72,80,75,70,96,83,61,30.05,29.96,0,0,0,0.07
2013-9-10,86,76,70,76,72,69,98,89,67,30.13,30.07,0,0,0,0.00
2013-9-11,84,77,72,78,74,71,98,91,83,30.19,30.08,0,0,0,0.00
2013-9-12,75,74,73,73,72,72,96,95,94,29.97,29.95,0,0,0,0.04
2013-9-13,77,70,64,65,58,-100,90,71,52,30.03,29.96,0,0,0,0.01
2013-9-14,72,64,49,60,51,-100,97,72,54,30.10,30.04,0,0,0,0.03
2013-9-15,84,65,50,64,57,49,98,78,43,30.10,30.06,0,0,0,0.05
2013-9-16,84,74,57,69,65,56,98,76,48,30.15,30.10,0,0,0,0.00
2013-9-17,86,72,65,71,67,64,97,85,55,30.18,30.06,0,0,0,0.00
2013-9-18,83,78,70,75,72,68,94,83,73,30.12,30.04,0,0,0,0.00
2013-9-19,89,79,68,75,71,67,97,78,60,30.10,29.97,0,0,0,0.00
2013-9-20,81,74,67,75,70,-100,97,91,72,29.97,29.81,0,0,0,1.69
2013-9-21,74,68,58,63,58,54,97,73,52,29.90,29.84,0,0,0,0.04
2013-9-22,74,58,50,58,54,49,97,90,54,29.94,29.91,0,0,0,0.02
2013-9-23,80,58,51,65,56,50,98,92,55,29.99,29.90,0,0,0,0.05
2013-9-24,70,70,69,69,69,68,97,97,96,29.84,29.83,0,0,0,0.10
2013-9-25,71,69,68,69,68,67,98,96,91,29.84,29.80,0,0,0,0.03
2013-9-26,77,68,60,69,66,59,98,91,72,29.99,29.93,0,0,0,0.05
2013-9-27,85,72,59,70,65,58,98,81,52,30.09,30.01,0,0,0,0.00
2013-9-28,79,66,59,64,62,58,98,87,56,30.16,30.04,0,0,0,0.01
2013-9-29,65,65,64,64,62,59,98,93,82,30.07,29.99,0,0,0,0.70
2013-9-30,68,66,64,66,64,63,98,95,91,30.01,29.97,0,0,0,0.00
2013-10-1,81,74,66,74,70,65,97,89,75,30.06,30.00,0,0,0,0.01
2013-10-2,70,69,67,69,68,67,98,96,94,30.10,30.05,0,0,0,0.03
2013-10-3,85,74,66,72,67,-100,98,85,61,30.07,29.96,0,0,0,0.00
2013-10-4,84,76,66,74,71,65,98,85,69,30.06,29.98,0,0,0,0.00
2013-10-5,85,77,72,77,73,69,94,88,70,30.03,29.89,0,0,0,0.07
2013-10-6,58,56,55,55,54,53,93,92,90,29.95,29.91,0,0,0,2.17
2013-10-7,66,57,45,55,49,-100,97,79,60,30.13,29.99,0,0,0,0.00
2013-10-8,70,56,46,57,50,45,97,85,53,30.18,30.09,0,0,0,0.01
2013-10-9,77,68,53,69,63,52,96,82,70,30.17,30.09,0,0,0,0.00
2013-10-10,74,64,56,67,62,55,98,93,79,30.14,30.03,0,0,0,0.02
2013-10-11,82,68,54,69,62,54,100,83,50,30.08,29.98,0,0,0,0.04
2013-10-12,70,60,54,69,59,54,98,97,95,30.11,30.04,0,0,0,0.35
2013-10-13,78,70,64,67,63,59,98,79,68,30.25,30.20,0,0,0,0.03
2013-10-14,68,67,66,66,65,64,95,94,93,30.11,30.08,0,0,0,0.00
2013-10-15,67,66,65,64,53,-100,96,87,88,30.05,29.96,0,0,0,0.22
2013-10-16,66,63,58,65,62,57,98,97,95,29.99,29.96,0,0,0,0.31
2013-10-17,65,56,50,55,52,49,95,87,64,30.03,29.97,0,0,0,0.03
2013-10-18,64,53,42,56,50,42,97,92,69,30.10,29.97,0,0,0,0.01
2013-10-19,55,51,43,53,47,41,97,85,68,30.08,29.92,0,0,0,0.08
2013-10-20,66,51,35,47,42,34,97,77,45,30.13,30.03,0,0,0,0.08
2013-10-21,70,54,38,56,50,36,98,87,49,30.09,29.98,0,0,0,0.04
2013-10-22,58,51,50,50,44,-100,92,86,74,30.07,29.89,0,0,0,0.02
2013-10-23,47,44,42,42,40,38,93,85,74,30.15,30.07,0,0,0,0.00
2013-10-24,51,44,40,44,34,-100,95,75,60,30.35,30.14,0,0,0,0.00
2013-10-25,51,32,30,35,26,-100,95,91,49,30.52,30.39,0,0,0,0.00
2013-10-26,62,56,31,50,42,-100,96,66,47,30.31,30.12,0,0,0,0.00
2013-10-27,67,61,52,58,56,51,95,85,71,30.09,30.04,0,0,0,0.00
2013-10-28,67,57,52,59,55,50,97,92,72,30.24,30.14,0,0,0,0.03
2013-10-29,66,59,51,65,58,51,98,96,89,30.27,30.14,0,0,0,0.02
2013-10-30,68,67,61,62,61,60,95,82,80,30.17,30.03,0,0,0,0.00
2013-10-31,70,66,62,68,62,-100,97,93,86,29.88,29.56,0,0,0,1.55
2013-11-1,55,50,49,50,49,48,97,95,82,29.84,29.80,0,0,0,0.00
2013-11-2,59,50,43,45,43,41,96,80,54,30.20,29.94,0,0,0,0.00
2013-11-3,60,46,34,40,33,-100,96,75,45,30.33,30.22,0,0,0,0.00
2013-11-4,55,47,42,49,41,-100,92,86,75,30.32,30.27,0,0,0,0.00
2013-11-5,70,58,53,52,46,42,69,65,52,30.34,30.18,0,0,0,0.00
2013-11-6,60,56,47,51,46,-100,94,71,63,30.20,30.10,0,0,0,0.55
2013-11-7,43,39,36,38,35,34,94,87,74,30.39,30.35,0,0,0,0.00
2013-11-8,59,39,31,40,36,29,96,88,44,30.42,30.24,0,0,0,0.01
2013-11-9,61,52,37,45,41,36,97,69,44,30.31,30.21,0,0,0,0.00
2013-11-10,65,52,42,45,40,38,96,67,38,30.36,30.30,0,0,0,0.00
2013-11-11,55,53,38,46,45,37,96,75,69,30.32,30.20,0,0,0,0.00
2013-11-12,42,36,32,36,29,22,91,76,45,30.67,30.49,0,0,0,0.06
2013-11-13,30,27,25,26,24,22,89,87,83,30.75,30.47,0,0,0,0.00
2013-11-14,28,26,23,25,24,22,93,91,89,30.47,30.43,0,0,0,0.00
2013-11-15,57,50,39,52,46,35,93,88,80,30.21,30.05,0,0,0,0.06
2013-11-16,66,61,55,63,58,-100,95,93,88,30.08,29.91,0,0,0,0.02
2013-11-17,75,68,57,70,66,56,97,92,74,29.93,29.68,0,0,0,1.12
2013-11-18,62,53,38,49,39,31,98,62,38,30.27,30.07,0,0,0,0.01
2013-11-19,50,44,-90,34,30,-100,79,57,45,30.32,30.21,0,0,0,0.00
2013-11-20,64,52,33,41,36,-100,92,58,38,30.22,30.10,0,0,0,0.00
2013-11-21,66,59,48,58,53,43,95,79,66,30.24,30.14,0,0,0,0.15
2013-11-22,60,53,45,59,51,42,97,93,89,30.39,30.19,0,0,0,0.34
2013-11-23,45,39,29,39,27,-100,90,66,37,30.61,30.43,0,0,0,0.00
2013-11-24,34,28,22,20,17,-100,78,63,46,30.70,30.50,0,0,0,0.00
2013-11-25,40,34,31,34,26,17,94,72,48,30.50,30.19,0,0,0,0.16
2013-11-26,39,36,35,36,33,-100,96,91,72,30.22,29.99,0,0,0,0.05
2013-11-27,32,26,19,18,14,-100,88,63,48,30.41,30.26,0,0,0,0.00
2013-11-28,45,26,17,24,18,-100,92,76,39,30.50,30.41,0,0,0,0.00
2013-11-29,54,41,24,32,29,22,94,66,41,30.61,30.46,0,0,0,0.00
2013-11-30,58,48,25,36,29,24,96,53,30,30.47,30.25,0,0,0,0.00
2013-12-1,59,51,45,43,41,35,85,69,55,30.19,29.98,0,0,0,0.00
2013-12-2,62,57,46,53,51,43,92,79,69,29.87,29.72,0,0,0,0.00
2013-12-3,64,58,53,56,54,-100,96,87,75,29.78,29.71,0,0,0,0.00
2013-12-4,67,63,57,62,60,56,96,92,84,29.78,29.71,0,0,0,0.00
2013-12-6,34,31,27,34,29,24,99,92,90,30.44,30.13,0,0,0,0.79
2013-12-7,29,26,23,26,23,-100,92,90,88,30.60,30.40,0,0,0,0.00
2013-12-8,36,34,32,35,34,31,96,96,95,30.25,30.08,3,0,4,0.40
2013-12-9,35,32,29,32,29,28,95,85,80,30.32,30.20,8,2,11,0.00
2013-12-10,32,28,25,28,24,21,93,83,76,30.42,30.20,4,1,7,0.00
2013-12-11,44,34,21,35,28,19,94,79,61,30.57,30.44,3,0,8,0.01
2013-12-12,41,31,18,22,19,16,91,62,39,30.65,30.47,2,0,4,0.00
2013-12-13,46,38,20,36,28,18,93,67,43,30.35,30.00,3,0,4,0.18
2013-12-14,45,40,36,44,37,-100,97,91,84,30.11,29.83,7,2,9,0.58
2013-12-15,36,33,28,32,28,-100,94,86,80,30.28,30.11,4,1,8,0.00
2013-12-16,59,43,29,40,34,28,95,75,47,30.23,30.11,10,2,12,0.00
2013-12-17,56,44,30,42,36,27,92,72,48,30.33,30.14,7,1,11,0.00
2013-12-18,55,40,24,34,29,23,95,69,38,30.40,30.16,4,1,6,0.00
2013-12-19,60,53,44,50,44,34,77,70,58,30.18,29.99,7,2,13,0.00
2013-12-20,65,61,58,62,57,50,95,85,73,30.00,29.85,7,4,11,0.20
2013-12-21,76,68,61,66,60,-100,96,83,70,29.85,29.47,12,7,20,0.62
2013-12-22,62,51,39,61,48,-100,98,91,81,30.20,29.58,6,1,7,0.01
2013-12-23,39,34,26,34,29,24,92,80,66,30.52,30.21,4,1,6,0.00
2013-12-24,31,27,23,25,18,-100,93,72,43,30.65,30.47,4,1,7,0.00
2013-12-25,48,32,20,30,22,17,92,71,37,30.48,30.33,3,0,5,0.00
2013-12-26,47,33,24,33,26,22,95,78,45,30.48,30.36,5,0,8,0.00
2013-12-27,52,30,23,34,26,21,94,85,44,30.50,30.39,1,0,4,0.00
2013-12-28,47,36,27,40,33,25,95,88,64,30.39,30.02,1,0,4,0.06
2013-12-29,55,44,34,45,40,29,97,87,67,30.20,29.96,6,1,9,0.29
2013-12-30,34,30,24,30,25,22,92,82,78,30.36,30.20,7,1,8,0.00
2013-12-31,48,31,20,31,24,-100,94,79,50,30.49,30.36,1,0,3,0.01
2014-1-1,53,43,24,41,33,22,95,71,50,30.30,29.98,4,1,10,0.01
2014-1-2,47,31,21,44,22,-100,95,82,64,30.45,29.90,6,2,11,0.18